Location: Kouchibouguac National Park
(46.8081°N, 64.9088°W)
Time: 22:15:13
(UTC-03:00)

Amateur Radio Satellites - All Passes

Search period start: 24 May 2016 21:45
Search period end: 25 May 2016 21:45
Location: Kouchibouguac National Park, 46.8081°N, 64.9088°W

Satellite Date Start Highest point End Downlink Frequencies (MHz)
Time Altitude Azimuth
ZACube-1 24 May 21:47:41 21:51:58 86° 73° (ENE) 21:56:11 437.345
HO-68 24 May 21:49:02 21:55:05 29° 267° (W) 22:01:09 435.675
CUSAT 1 24 May 21:49:47 21:55:12 19° 53° (NE) 22:00:17 437.405
CUTE 1.7 + AOD 2 24 May 21:52:17 21:54:50 16° 270° (W) 21:57:24 437.475
DELFI C3 24 May 21:53:29 21:57:21 53° 72° (ENE) 22:01:14 145.870
O/OREOS (USA 219) 24 May 21:54:56 21:57:37 16° 260° (W) 22:00:16 437.305
Cosmos 2499 24 May 22:04:43 22:09:33 19° 77° (ENE) 22:14:35 435.465 / 435.565
CINEMA 3 24 May 22:05:01 22:07:22 13° 271° (W) 22:09:39 145.822/145.860
BEESAT 3 24 May 22:07:12 22:10:57 42° 240° (WSW) 22:14:41 437.485
UWE-3 24 May 22:14:26 22:18:24 34° 263° (W) 22:22:18 435.000/436.395/437.385
AIST 1 24 May 22:17:17 22:21:38 70° 96° (E) 22:26:02
HUMSAT D 24 May 22:25:35 22:29:35 55° 73° (ENE) 22:33:35 437.325/437.525
AISAT 24 May 22:26:34 22:27:58 11° 56° (ENE) 22:29:23 437.250
COMPASS 1 24 May 22:27:23 22:29:06 12° 272° (W) 22:30:51 437.405
FUNcube-1 24 May 22:28:07 22:32:04 38° 262° (W) 22:36:00 145.935
AAUSAT CUBESAT 2 24 May 22:33:01 22:34:59 13° 271° (W) 22:36:56 437.432
UNISAT 6 24 May 22:36:18 22:38:30 14° 89° (E) 22:40:42 437.425
PRISM 24 May 22:36:29 22:40:21 37° 291° (WNW) 22:44:11 437.425
STRAND 1 24 May 22:39:16 22:41:46 14° 305° (NW) 22:44:16 437.568
ISS 24 May 22:43:17 22:45:10 15° 135° (SE) 22:47:03 145.825
TIGRISAT 24 May 22:44:40 22:47:18 16° 91° (E) 22:49:56 435.000
ESTCUBE 1 24 May 22:48:27 22:52:01 23° 64° (ENE) 22:55:37 437.505/2401.250
RS-15 24 May 22:50:48 23:01:16 34° 352° (N) 23:12:05 29.354- 29.394
UKube-1 24 May 22:52:08 22:54:12 13° 58° (ENE) 22:56:17 .
DANDE 24 May 22:53:41 23:00:44 29° 61° (ENE) 23:07:38 436.750
BEESAT 2 24 May 23:03:58 23:06:59 21° 246° (WSW) 23:09:58 435.950
AIST 2 24 May 23:07:04 23:10:59 38° 45° (NE) 23:14:53 435.215
ANTELSAT 24 May 23:16:19 23:20:15 34° 97° (E) 23:24:11 437.575/2403.000
Oscar 11 24 May 23:20:03 23:21:08 11° 273° (W) 23:22:14 145.826/435.025
50 SAT 24 May 23:22:55 23:26:11 32° 69° (ENE) 23:29:29 437.505
VELOX 1 24 May 23:24:04 23:28:08 35° 67° (ENE) 23:32:13 145.980
CUBEBUG 1 24 May 23:25:58 23:30:02 37° 68° (ENE) 23:34:07 437.445
DX 1 24 May 23:30:17 23:34:16 35° 67° (ENE) 23:38:16 434.975-435.025
DELFI C3 24 May 23:30:24 23:32:33 14° 270° (W) 23:34:44 145.870
CUSAT 1 24 May 23:30:50 23:38:55 73° 76° (ENE) 23:45:55 437.405
GONETS M04 24 May 23:38:15 23:47:03 70° 282° (WNW) 23:55:49
Cosmos 2499 24 May 23:54:16 00:01:30 85° 280° (W) 00:09:18 435.465 / 435.565
AIST 1 24 May 23:57:32 23:59:46 14° 295° (WNW) 00:02:03
AISAT 24 May 23:59:13 00:03:42 82° 74° (ENE) 00:08:13 437.250
DUCHIFAT 1 25 May 00:02:21 00:05:20 19° 92° (E) 00:08:18 145.980
HUMSAT D 25 May 00:03:21 00:05:34 14° 270° (W) 00:07:49 437.325/437.525
SPROUT 25 May 00:08:09 00:12:09 39° 69° (ENE) 00:16:10 437.525
UNISAT 6 25 May 00:11:24 00:15:39 64° 287° (WNW) 00:19:55 437.425
ISS 25 May 00:17:55 00:21:11 83° 152° (SSE) 00:24:27 145.825
TIGRISAT 25 May 00:20:10 00:24:21 55° 288° (WNW) 00:28:32 435.000
ESTCUBE 1 25 May 00:24:18 00:28:36 42° 262° (W) 00:32:56 437.505/2401.250
UKube-1 25 May 00:25:19 00:29:39 80° 256° (WSW) 00:34:02 .
PHONESAT 2.4 25 May 00:31:31 00:33:18 14° 160° (SSE) 00:35:05 2401.200-2431.200
BUGSAT 1 25 May 00:34:21 00:37:18 19° 92° (E) 00:40:13 437.445
POPSAT HIP 1 25 May 00:35:54 00:39:57 45° 99° (E) 00:43:58 437.405
DANDE 25 May 00:36:03 00:44:28 81° 262° (W) 00:52:30 436.750
QB50P1 25 May 00:36:37 00:40:42 47° 100° (E) 00:44:44 145.935-145.965
QB50P2 25 May 00:37:42 00:41:49 50° 100° (E) 00:45:54 145.880/145.840
POLYITAN 1 25 May 00:40:08 00:44:15 51° 100° (E) 00:48:20 437.675
TISAT 1 25 May 00:44:49 00:48:30 29° 67° (ENE) 00:52:10 437.305
AIST 2 25 May 00:45:49 00:49:21 27° 244° (WSW) 00:52:52 435.215
ANTELSAT 25 May 00:53:19 00:56:51 26° 294° (WNW) 01:00:24 437.575/2403.000
NANOSAT C BR1 25 May 00:56:53 01:01:05 74° 102° (ESE) 01:05:16 145.865
50 SAT 25 May 00:57:21 01:00:01 19° 267° (W) 01:02:43 437.505
VELOX 1 25 May 01:00:53 01:04:40 26° 265° (W) 01:08:28 145.980
CUBEBUG 1 25 May 01:02:44 01:06:24 25° 266° (W) 01:10:06 437.445
RS-15 25 May 01:06:33 01:17:54 42° 26° (NNE) 01:29:25 29.354- 29.394
DX 1 25 May 01:06:50 01:10:31 26° 265° (W) 01:14:13 434.975-435.025
CUSAT 1 25 May 01:13:54 01:20:15 27° 278° (W) 01:25:59 437.405
Oscar 19 25 May 01:26:26 01:28:35 12° 87° (E) 01:30:44 437.125/150
SWISSCUBE 25 May 01:30:24 01:34:05 23° 62° (ENE) 01:37:48 437.505
SO-50 25 May 01:33:05 01:37:28 33° 117° (ESE) 01:41:51 436.795
ITUPSAT 1 25 May 01:34:48 01:38:28 23° 62° (ENE) 01:42:10 437.325
DUCHIFAT 1 25 May 01:37:16 01:41:16 44° 290° (WNW) 01:45:13 145.980
AISAT 25 May 01:39:14 01:40:47 12° 272° (W) 01:42:19 437.250
GONETS M04 25 May 01:40:17 01:45:45 18° 307° (NW) 01:51:14
JAS-2 25 May 01:43:27 01:50:45 45° 95° (E) 01:57:21 435.910
SPROUT 25 May 01:44:52 01:48:15 22° 267° (W) 01:51:38 437.525
Cosmos 2499 25 May 01:51:03 01:56:01 19° 303° (WNW) 02:01:15 435.465 / 435.565
ISS 25 May 01:54:48 01:57:51 36° 352° (N) 02:00:55 145.825
BEESAT 25 May 01:59:41 02:04:02 37° 67° (ENE) 02:08:24 436.000
YUBILEINY 25 May 02:00:14 02:04:57 15° 51° (NE) 02:09:38 435.215
PHONESAT 2.4 25 May 02:06:50 02:09:29 25° 176° (S) 02:12:07 2401.200-2431.200
BUGSAT 1 25 May 02:09:03 02:12:53 40° 290° (WNW) 02:16:39 437.445
POPSAT HIP 1 25 May 02:12:24 02:15:27 20° 297° (WNW) 02:18:28 437.405
QB50P1 25 May 02:13:10 02:16:09 19° 297° (WNW) 02:19:08 145.935-145.965
QB50P2 25 May 02:14:25 02:17:16 18° 298° (WNW) 02:20:08 145.880/145.840
POLYITAN 1 25 May 02:16:53 02:19:42 18° 298° (WNW) 02:22:30 437.675
TISAT 1 25 May 02:20:25 02:24:07 29° 264° (W) 02:27:50 437.305
DANDE 25 May 02:20:31 02:26:08 20° 282° (WNW) 02:31:38 436.750
NANOSAT C BR1 25 May 02:34:18 02:36:16 13° 301° (WNW) 02:38:13 145.865
STARS 25 May 02:57:41 02:58:51 11° 56° (NE) 03:00:02 437.465
Gurwin Techsat 1B 25 May 03:00:52 03:05:50 39° 97° (E) 03:10:47 435.225
Cosmos 2491 25 May 03:02:35 03:05:47 12° 70° (ENE) 03:08:59 435.465 / 435.565
Oscar 19 25 May 03:03:26 03:08:39 89° 103° (ESE) 03:13:48 437.125/150
SWISSCUBE 25 May 03:07:00 03:11:35 49° 260° (W) 03:16:14 437.505
Cosmos 2504 25 May 03:07:58 03:09:46 11° 48° (NE) 03:11:35 435.465 / 435.565
ITUPSAT 1 25 May 03:11:24 03:16:00 49° 260° (W) 03:20:40 437.325
SO-50 25 May 03:13:12 03:17:53 43° 316° (NW) 03:22:33 436.795
RS-15 25 May 03:19:47 03:32:09 89° 54° (NE) 03:44:30 29.354- 29.394
JAS-2 25 May 03:28:31 03:35:42 44° 297° (WNW) 03:42:18 435.910
ISS 25 May 03:31:39 03:34:46 40° 12° (NNE) 03:37:52 145.825
BEESAT 25 May 03:37:48 03:41:53 28° 265° (W) 03:46:00 436.000
ITAMSAT 1 25 May 03:38:16 03:43:00 34° 96° (E) 03:47:42 435.822/435.867
MOZHAYETS 4 25 May 03:38:57 03:43:02 34° 68° (ENE) 03:47:09
PHONESAT 2.4 25 May 03:43:22 03:45:44 20° 193° (SSW) 03:48:06 2401.200-2431.200
KKS-1 25 May 03:45:56 03:50:19 54° 71° (ENE) 03:54:41 437.445
YUBILEINY 25 May 03:55:14 04:03:56 62° 76° (ENE) 04:12:35 435.215
STARS 25 May 04:30:04 04:34:29 81° 72° (ENE) 04:38:55 437.465
Gurwin Techsat 1B 25 May 04:41:00 04:45:42 33° 295° (WNW) 04:50:24 435.225
Oscar 19 25 May 04:44:20 04:47:16 15° 304° (NW) 04:50:11 437.125/150
AO-7 25 May 04:48:04 04:56:10 50° 101° (E) 05:04:12 29.400- 29.500
Cosmos 2491 25 May 04:52:02 05:00:39 61° 92° (E) 05:09:17 435.465 / 435.565
CUBESAT XI-V 25 May 04:56:04 04:59:58 27° 65° (ENE) 05:03:54 437.345
SO-50 25 May 04:57:08 04:59:38 14° 338° (NNW) 05:02:07 436.795
Cosmos 2504 25 May 04:57:39 05:05:34 47° 72° (ENE) 05:13:53 435.465 / 435.565
HORYU 2 25 May 05:02:07 05:04:34 14° 90° (E) 05:06:59 437.375
ISS 25 May 05:08:07 05:11:20 60° 211° (SSW) 05:14:33 145.825
JAS-2 25 May 05:16:18 05:18:43 12° 319° (NW) 05:21:06 435.910
MOZHAYETS 4 25 May 05:16:19 05:20:14 28° 265° (W) 05:24:13
ITAMSAT 1 25 May 05:17:43 05:22:28 37° 294° (WNW) 05:27:13 435.822/435.867
KKS-1 25 May 05:24:14 05:27:12 17° 269° (W) 05:30:12 437.445
RS-15 25 May 05:33:22 05:43:11 30° 258° (WSW) 05:52:58 29.354- 29.394
YUBILEINY 25 May 05:52:45 06:00:12 33° 277° (W) 06:07:41 435.215
NOAA 15 25 May 05:53:04 05:53:30 10° 85° (E) 05:53:56 137.62
STARS 25 May 06:09:58 06:11:25 11° 272° (W) 06:12:52 437.465
CUTE-I 25 May 06:31:27 06:34:54 17° 89° (E) 06:38:21 437.470
CUBESAT XI-V 25 May 06:32:50 06:37:11 39° 263° (W) 06:41:37 437.345
HORYU 2 25 May 06:37:09 06:41:33 65° 288° (WNW) 06:45:56 437.375
STRAND 1 25 May 06:38:56 06:43:14 29° 63° (ENE) 06:47:34 437.568
AO-7 25 May 06:41:05 06:48:52 45° 301° (WNW) 06:56:39 29.400- 29.500
Cosmos 2491 25 May 06:50:08 06:58:01 35° 294° (WNW) 07:05:57 435.465 / 435.565
Cosmos 2504 25 May 06:51:13 06:58:55 45° 272° (W) 07:07:02 435.465 / 435.565
NOAA 18 25 May 06:57:17 07:02:13 33° 96° (E) 07:07:08 137.9125
AO-85 25 May 06:58:20 07:03:08 32° 115° (ESE) 07:07:51 145.980
BRITE-PL 25 May 07:18:57 07:24:07 51° 98° (E) 07:28:53 437.365/2234.400
Cubesat XI-IV 25 May 07:22:57 07:28:07 46° 99° (E) 07:33:15 437.490
DOVE 4 25 May 07:26:40 07:28:42 13° 87° (E) 07:30:41 437.250
NOAA 15 25 May 07:28:52 07:34:12 73° 103° (ESE) 07:39:29 137.62
LilacSat-2 25 May 07:42:21 07:46:07 74° 101° (E) 07:49:54 437.200
GONETS M04 25 May 07:49:32 07:54:55 17° 53° (NE) 08:00:16
Cosmos 2499 25 May 07:51:44 07:53:03 10° 47° (NE) 07:54:22 435.465 / 435.565
PRISM 25 May 07:53:46 07:57:10 25° 65° (ENE) 08:00:35 437.425
GOMX 1 25 May 07:58:54 08:03:42 58° 100° (E) 08:08:09 467.674
CUTE-I 25 May 08:10:10 08:15:31 73° 287° (WNW) 08:20:51 437.470
STRAND 1 25 May 08:17:25 08:22:14 42° 261° (W) 08:27:06 437.568
CINEMA 3 25 May 08:18:38 08:20:33 13° 88° (E) 08:22:28 145.822/145.860
SO-50 25 May 08:21:42 08:24:51 17° 28° (NNE) 08:27:56 436.795
AIST 1 25 May 08:21:47 08:25:20 24° 70° (ENE) 08:28:52
AUBIESAT-1 25 May 08:31:54 08:32:55 11° 96° (E) 08:33:55 437.475
M-CUBED/EXP-1 PRIME 25 May 08:35:08 08:37:08 15° 98° (E) 08:39:06 437.505
AO-7 25 May 08:35:55 08:39:34 14° 325° (NW) 08:43:14 29.400- 29.500
NOAA 18 25 May 08:37:52 08:42:56 40° 295° (WNW) 08:47:59 137.9125
AO-85 25 May 08:38:12 08:43:31 50° 314° (NW) 08:48:40 145.980
BRITE-PL 25 May 08:58:00 09:02:13 24° 299° (WNW) 09:06:13 437.365/2234.400
DOVE 4 25 May 09:02:30 09:07:02 69° 286° (WNW) 09:11:17 437.250
Cubesat XI-IV 25 May 09:03:28 09:07:59 29° 297° (WNW) 09:12:30 437.490
CANX-2 25 May 09:04:21 09:08:26 42° 98° (E) 09:12:31 2200.000
NOAA 15 25 May 09:09:46 09:13:25 19° 302° (WNW) 09:17:03 137.62
HO-68 25 May 09:11:49 09:18:46 50° 100° (E) 09:25:41 435.675
SEEDS 25 May 09:13:00 09:16:54 34° 96° (E) 09:20:47 437.485
LilacSat-2 25 May 09:18:51 09:19:53 11° 300° (WNW) 09:20:54 437.200
Oscar 11 25 May 09:26:17 09:28:04 12° 88° (E) 09:29:52 145.826/435.025
CUBEBUG 2 25 May 09:26:27 09:29:42 22° 93° (E) 09:32:56 437.445
PRISM 25 May 09:28:34 09:32:20 34° 263° (W) 09:36:10 437.425
CUTE 1.7 + AOD 2 25 May 09:32:04 09:36:21 74° 102° (ESE) 09:40:38 437.475
ZACube-1 25 May 09:34:40 09:36:33 13° 89° (E) 09:38:27 437.345
UNISAT 6 25 May 09:37:48 09:40:50 19° 63° (ENE) 09:43:50 437.425
GOMX 1 25 May 09:37:53 09:41:18 19° 300° (WNW) 09:44:34 467.674
Cosmos 2499 25 May 09:40:44 09:48:45 45° 71° (ENE) 09:57:06 435.465 / 435.565
GONETS M04 25 May 09:44:55 09:53:39 70° 78° (ENE) 10:02:18
TIGRISAT 25 May 09:46:03 09:49:20 21° 64° (ENE) 09:52:34 435.000
CUTE-I 25 May 09:52:19 09:54:39 13° 307° (NW) 09:56:59 437.470
CINEMA 3 25 May 09:54:01 09:58:12 63° 287° (WNW) 10:02:17 145.822/145.860
AIST 1 25 May 09:59:03 10:03:02 35° 269° (W) 10:06:59
UWE-3 25 May 10:00:41 10:04:30 34° 97° (E) 10:08:20 435.000/436.395/437.385
SO-50 25 May 10:01:32 10:06:16 66° 50° (NE) 10:10:49 436.795
COMPASS 1 25 May 10:04:14 10:08:29 87° 104° (ESE) 10:12:42 437.405
AUBIESAT-1 25 May 10:04:32 10:07:47 47° 294° (WNW) 10:10:58 437.475
M-CUBED/EXP-1 PRIME 25 May 10:08:51 10:11:55 34° 296° (WNW) 10:14:54 437.505
AAUSAT CUBESAT 2 25 May 10:09:37 10:13:50 81° 103° (ESE) 10:18:02 437.432
PCSat 25 May 10:11:31 10:15:37 22° 108° (ESE) 10:19:44 145.827
FUNcube-1 25 May 10:12:55 10:16:36 30° 96° (E) 10:20:19 145.935
ANTELSAT 25 May 10:17:47 10:21:56 43° 70° (ENE) 10:26:01 437.575/2403.000
AO-85 25 May 10:21:53 10:25:12 16° 335° (NNW) 10:28:24 145.980
O/OREOS (USA 219) 25 May 10:29:23 10:33:39 40° 107° (ESE) 10:37:55 437.305
CANX-2 25 May 10:40:48 10:44:03 21° 296° (WNW) 10:47:17 2200.000
SEEDS 25 May 10:48:59 10:52:28 25° 294° (WNW) 10:55:58 437.485
DUCHIFAT 1 25 May 10:57:02 11:00:15 21° 64° (ENE) 11:03:28 145.980
CUSAT 1 25 May 10:58:59 11:01:00 11° 71° (ENE) 11:03:07 437.405
HO-68 25 May 10:59:50 11:06:21 39° 299° (WNW) 11:12:50 435.675
Oscar 11 25 May 11:00:23 11:04:43 73° 286° (WNW) 11:09:03 145.826/435.025
CUBEBUG 2 25 May 11:02:38 11:06:28 37° 291° (WNW) 11:10:18 437.445
DELFI C3 25 May 11:02:53 11:06:54 60° 101° (ESE) 11:10:53 145.870
ZACube-1 25 May 11:09:09 11:13:17 65° 286° (WNW) 11:17:27 437.345
CUTE 1.7 + AOD 2 25 May 11:09:32 11:11:38 14° 300° (WNW) 11:13:45 437.475
UNISAT 6 25 May 11:12:57 11:17:13 51° 260° (W) 11:21:27 437.425
TIGRISAT 25 May 11:21:36 11:25:46 44° 261° (W) 11:29:55 435.000
BUGSAT 1 25 May 11:26:47 11:30:00 22° 64° (ENE) 11:33:13 437.445
POPSAT HIP 1 25 May 11:30:53 11:34:59 49° 71° (ENE) 11:39:05 437.405
QB50P1 25 May 11:31:32 11:35:39 51° 71° (ENE) 11:39:47 145.935-145.965
QB50P2 25 May 11:32:48 11:36:58 55° 72° (ENE) 11:41:07 145.880/145.840
Cosmos 2499 25 May 11:33:57 11:41:57 48° 271° (W) 11:50:16 435.465 / 435.565
POLYITAN 1 25 May 11:35:14 11:39:24 56° 72° (ENE) 11:43:33 437.675
UWE-3 25 May 11:37:29 11:40:50 24° 294° (WNW) 11:44:12 435.000/436.395/437.385
HUMSAT D 25 May 11:41:20 11:45:29 72° 102° (ESE) 11:49:39 437.325/437.525
COMPASS 1 25 May 11:41:58 11:43:24 12° 301° (WNW) 11:44:50 437.405
GONETS M04 25 May 11:42:41 11:49:43 29° 279° (W) 11:56:43
SO-50 25 May 11:43:02 11:46:14 18° 249° (WSW) 11:49:22 436.795
AAUSAT CUBESAT 2 25 May 11:47:01 11:48:43 12° 301° (WNW) 11:50:25 437.432
AISAT 25 May 11:48:26 11:50:21 13° 88° (E) 11:52:15 437.250
FUNcube-1 25 May 11:49:16 11:52:48 27° 293° (WNW) 11:56:21 145.935
NANOSAT C BR1 25 May 11:51:26 11:55:40 79° 75° (ENE) 11:59:55 145.865
PCSat 25 May 11:53:10 11:58:33 64° 307° (NW) 12:03:58 145.827
ANTELSAT 25 May 11:55:36 11:58:51 20° 267° (W) 12:02:05 437.575/2403.000
JAS-2 25 May 11:57:54 12:04:14 32° 58° (ENE) 12:10:53 435.910
BEESAT 3 25 May 12:01:53 12:04:05 15° 111° (ESE) 12:06:18 437.485
DANDE 25 May 12:07:34 12:11:09 17° 76° (ENE) 12:15:19 436.750
O/OREOS (USA 219) 25 May 12:09:18 12:13:12 27° 307° (NW) 12:17:04 437.305
UKube-1 25 May 12:11:03 12:13:17 14° 90° (E) 12:15:32 .
ESTCUBE 1 25 May 12:13:47 12:17:52 32° 96° (E) 12:21:56 437.505/2401.250
50 SAT 25 May 12:22:55 12:26:09 27° 96° (E) 12:29:23 437.505
DUCHIFAT 1 25 May 12:31:42 12:35:42 41° 261° (W) 12:39:44 145.980
CUSAT 1 25 May 12:35:07 12:41:13 60° 94° (E) 12:48:42 437.405
DELFI C3 25 May 12:39:04 12:41:19 15° 298° (WNW) 12:43:33 145.870
Oscar 19 25 May 12:45:04 12:49:20 26° 63° (ENE) 12:53:37 437.125/150
VELOX 1 25 May 12:47:14 12:51:32 46° 99° (E) 12:55:47 145.980
CUBEBUG 1 25 May 12:47:29 12:51:46 48° 99° (E) 12:55:59 437.445
Gurwin Techsat 1B 25 May 12:48:17 12:50:55 14° 54° (NE) 12:53:34 435.225
DX 1 25 May 12:51:15 12:55:26 42° 99° (E) 12:59:34 434.975-435.025
BEESAT 2 25 May 12:57:49 13:01:20 31° 117° (ESE) 13:04:53 435.950
BUGSAT 1 25 May 13:01:10 13:05:09 40° 262° (W) 13:09:08 437.445
POPSAT HIP 1 25 May 13:08:12 13:11:02 17° 268° (W) 13:13:54 437.405
QB50P1 25 May 13:08:58 13:11:44 17° 269° (W) 13:14:31 145.935-145.965
QB50P2 25 May 13:10:32 13:13:07 16° 269° (W) 13:15:42 145.880/145.840
POLYITAN 1 25 May 13:13:04 13:15:34 15° 270° (W) 13:18:04 437.675
HUMSAT D 25 May 13:18:38 13:20:36 13° 300° (WNW) 13:22:33 437.325/437.525
AISAT 25 May 13:22:55 13:27:22 74° 287° (WNW) 13:31:45 437.250
ITAMSAT 1 25 May 13:23:47 13:25:33 12° 53° (NE) 13:27:20 435.822/435.867
SPROUT 25 May 13:26:46 13:30:56 50° 100° (E) 13:35:04 437.525
NANOSAT C BR1 25 May 13:30:53 13:31:58 11° 272° (W) 13:33:03 145.865
BEESAT 3 25 May 13:37:23 13:41:18 64° 309° (NW) 13:45:15 437.485
PCSat 25 May 13:39:31 13:43:02 17° 329° (NNW) 13:46:35 145.827
JAS-2 25 May 13:41:20 13:48:37 69° 259° (WSW) 13:56:29 435.910
UKube-1 25 May 13:45:29 13:49:48 65° 287° (WNW) 13:54:04 .
DANDE 25 May 13:47:18 13:52:40 83° 283° (WNW) 13:59:51 436.750
AO-85 25 May 13:47:34 13:50:33 16° 24° (NNE) 13:53:24 145.980
ESTCUBE 1 25 May 13:50:39 13:54:39 31° 294° (WNW) 13:58:37 437.505/2401.250
50 SAT 25 May 13:56:47 13:59:48 24° 293° (WNW) 14:02:49 437.505
AO-7 25 May 14:00:27 14:06:36 24° 47° (NE) 14:12:46 29.400- 29.500
TISAT 1 25 May 14:00:58 14:04:46 33° 97° (E) 14:08:33 437.305
CUSAT 1 25 May 14:18:11 14:23:55 32° 298° (WNW) 14:30:38 437.405
Oscar 19 25 May 14:23:23 14:28:24 48° 260° (W) 14:33:28 437.125/150
VELOX 1 25 May 14:24:21 14:27:43 21° 297° (WNW) 14:31:03 145.980
CUBEBUG 1 25 May 14:24:31 14:27:43 20° 298° (WNW) 14:30:55 437.445
Gurwin Techsat 1B 25 May 14:24:44 14:30:02 80° 75° (ENE) 14:35:23 435.225
DX 1 25 May 14:28:00 14:31:23 22° 297° (WNW) 14:34:45 434.975-435.025
BEESAT 2 25 May 14:35:32 14:39:10 32° 316° (NW) 14:42:48 435.950
AIST 2 25 May 14:45:38 14:49:11 29° 117° (ESE) 14:52:47 435.215
Cosmos 2491 25 May 14:58:53 15:06:48 36° 66° (ENE) 15:14:37 435.465 / 435.565
ITAMSAT 1 25 May 14:58:58 15:04:05 68° 72° (ENE) 15:09:15 435.822/435.867
AISAT 25 May 15:02:42 15:03:02 10° 305° (NW) 15:03:22 437.250
SPROUT 25 May 15:03:34 15:06:33 19° 297° (WNW) 15:09:29 437.525
SWISSCUBE 25 May 15:04:09 15:08:31 34° 97° (E) 15:12:52 437.505
ITUPSAT 1 25 May 15:08:53 15:13:15 33° 97° (E) 15:17:35 437.325
YUBILEINY 25 May 15:09:35 15:13:03 13° 70° (ENE) 15:16:31 435.215
BEESAT 3 25 May 15:17:49 15:19:47 13° 330° (NNW) 15:21:45 437.485
AO-85 25 May 15:27:25 15:32:11 55° 48° (NE) 15:36:30 145.980
JAS-2 25 May 15:31:16 15:35:06 15° 280° (W) 15:39:04 435.910
DANDE 25 May 15:33:05 15:37:04 18° 308° (NW) 15:41:39 436.750
BEESAT 25 May 15:33:58 15:38:43 58° 102° (ESE) 15:43:26 436.000
TISAT 1 25 May 15:36:52 15:40:19 25° 295° (WNW) 15:43:45 437.305
AO-7 25 May 15:49:58 15:58:16 83° 69° (ENE) 16:06:38 29.400- 29.500
HORYU 2 25 May 16:02:41 16:05:56 20° 62° (ENE) 16:09:12 437.375
Gurwin Techsat 1B 25 May 16:07:35 16:10:38 15° 272° (W) 16:13:41 435.225
STARS 25 May 16:18:42 16:20:16 12° 88° (E) 16:21:48 437.465
AIST 2 25 May 16:23:44 16:27:35 37° 315° (NW) 16:31:28 435.215
ITAMSAT 1 25 May 16:40:41 16:44:04 17° 270° (W) 16:47:29 435.822/435.867
SWISSCUBE 25 May 16:42:02 16:46:16 32° 294° (WNW) 16:50:30 437.505
ITUPSAT 1 25 May 16:46:47 16:51:03 32° 294° (WNW) 16:55:18 437.325
NOAA 18 25 May 16:49:04 16:52:03 15° 54° (NE) 16:55:01 137.9125
Cosmos 2491 25 May 16:55:34 17:04:07 60° 269° (W) 17:12:36 435.465 / 435.565
BRITE-PL 25 May 16:56:13 16:59:16 15° 55° (NE) 17:02:19 437.365/2234.400
YUBILEINY 25 May 16:59:27 17:07:59 64° 92° (E) 17:16:32 435.215
MOZHAYETS 4 25 May 17:07:25 17:11:58 54° 100° (E) 17:16:29
AO-85 25 May 17:08:43 17:12:13 21° 249° (WSW) 17:15:28 145.980
KKS-1 25 May 17:10:16 17:14:44 74° 103° (ESE) 17:19:09 437.445
Cubesat XI-IV 25 May 17:10:32 17:13:50 17° 56° (ENE) 17:17:09 437.490
BEESAT 25 May 17:12:39 17:16:06 20° 299° (WNW) 17:19:31 436.000
PCSat 25 May 17:12:53 17:15:04 12° 22° (NNE) 17:17:16 145.827
NOAA 15 25 May 17:13:35 17:17:49 25° 61° (ENE) 17:22:03 137.62
GOMX 1 25 May 17:33:37 17:36:39 15° 57° (ENE) 17:39:38 467.674
HORYU 2 25 May 17:37:55 17:42:11 48° 260° (W) 17:46:29 437.375
Cosmos 2504 25 May 17:41:03 17:47:12 31° 83° (E) 17:53:38 435.465 / 435.565
AO-7 25 May 17:45:34 17:51:57 24° 269° (W) 17:58:24 29.400- 29.500
RS-15 25 May 17:46:56 17:57:17 44° 109° (ESE) 18:08:08 29.354- 29.394
STARS 25 May 17:52:48 17:57:11 78° 286° (WNW) 18:01:32 437.465
CUTE-I 25 May 17:55:39 18:00:29 37° 66° (ENE) 18:05:21 437.470
HO-68 25 May 18:01:15 18:03:59 13° 42° (NE) 18:06:43 435.675
AIST 2 25 May 18:06:47 18:07:15 10° 337° (NNW) 18:07:44 435.215
CUBESAT XI-V 25 May 18:26:04 18:30:35 42° 98° (E) 18:35:02 437.345
NOAA 18 25 May 18:26:25 18:31:53 82° 72° (ENE) 18:37:22 137.9125
LilacSat-2 25 May 18:26:52 18:30:36 53° 72° (ENE) 18:34:18 437.200
BRITE-PL 25 May 18:31:11 18:36:49 77° 74° (ENE) 18:42:32 437.365/2234.400
DOVE 4 25 May 18:33:28 18:37:32 24° 64° (ENE) 18:41:29 437.250
MOZHAYETS 4 25 May 18:45:26 18:48:46 20° 298° (WNW) 18:52:07
Cubesat XI-IV 25 May 18:47:55 18:53:14 84° 255° (WSW) 18:58:36 437.490
KKS-1 25 May 18:48:19 18:50:44 15° 301° (WNW) 18:53:09 437.445
NOAA 15 25 May 18:52:03 18:57:15 54° 259° (W) 19:02:29 137.62
PCSat 25 May 18:55:02 19:00:06 38° 46° (NE) 19:05:08 145.827
Cosmos 2491 25 May 18:56:10 18:58:56 12° 291° (WNW) 19:01:42 435.465 / 435.565
O/OREOS (USA 219) 25 May 18:57:44 19:00:55 19° 49° (NE) 19:04:05 437.305
YUBILEINY 25 May 18:57:46 19:05:23 33° 295° (WNW) 19:13:04 435.215
GOMX 1 25 May 19:08:27 19:13:57 83° 75° (ENE) 19:19:23 467.674
AUBIESAT-1 25 May 19:18:51 19:22:29 31° 63° (ENE) 19:25:55 437.475
CINEMA 3 25 May 19:22:14 19:25:42 21° 64° (ENE) 19:29:03 145.822/145.860
M-CUBED/EXP-1 PRIME 25 May 19:23:03 19:27:01 42° 65° (ENE) 19:30:42 437.505
COMPASS 1 25 May 19:26:32 19:26:46 10° 57° (ENE) 19:27:00 437.405
STARS 25 May 19:32:04 19:32:46 10° 304° (NW) 19:33:29 437.465
Cosmos 2504 25 May 19:33:06 19:40:09 54° 286° (WNW) 19:47:38 435.465 / 435.565
CUTE-I 25 May 19:35:47 19:40:33 34° 264° (W) 19:45:23 437.470
BEESAT 2 25 May 19:36:29 19:37:57 12° 27° (NNE) 19:39:25 435.950
HO-68 25 May 19:43:17 19:50:05 50° 64° (ENE) 19:56:55 435.675
RS-15 25 May 19:57:45 20:09:11 68° 314° (NW) 20:21:19 29.354- 29.394
CANX-2 25 May 19:59:45 20:03:44 43° 71° (ENE) 20:07:45 2200.000
LilacSat-2 25 May 20:03:25 20:05:14 13° 270° (W) 20:07:03 437.200
CUBESAT XI-V 25 May 20:03:54 20:07:44 25° 296° (WNW) 20:11:34 437.345
SEEDS 25 May 20:07:27 20:11:14 34° 69° (ENE) 20:15:02 437.485
DOVE 4 25 May 20:09:45 20:14:54 55° 260° (W) 20:19:53 437.250
NOAA 18 25 May 20:10:04 20:13:14 15° 271° (W) 20:16:23 137.9125
BRITE-PL 25 May 20:12:04 20:15:52 18° 272° (W) 20:19:43 437.365/2234.400
BEESAT 3 25 May 20:14:48 20:18:13 26° 41° (NE) 20:21:35 437.485
Oscar 11 25 May 20:23:51 20:26:16 15° 60° (ENE) 20:28:42 145.826/435.025
STRAND 1 25 May 20:24:31 20:29:33 52° 100° (E) 20:34:34 437.568
CUBEBUG 2 25 May 20:27:12 20:30:55 27° 67° (ENE) 20:34:32 437.445
CUTE 1.7 + AOD 2 25 May 20:27:13 20:31:25 74° 76° (ENE) 20:35:39 437.475
Cubesat XI-IV 25 May 20:32:07 20:34:07 12° 274° (W) 20:36:08 437.490
ZACube-1 25 May 20:33:18 20:35:51 16° 62° (ENE) 20:38:23 437.345
O/OREOS (USA 219) 25 May 20:36:19 20:40:47 63° 249° (WSW) 20:45:11 437.305
PCSat 25 May 20:38:29 20:43:34 42° 246° (WSW) 20:48:36 145.827
GOMX 1 25 May 20:49:24 20:52:37 16° 273° (W) 20:55:49 467.674
AUBIESAT-1 25 May 20:53:29 20:56:59 26° 258° (WSW) 21:00:18 437.475
AIST 1 25 May 20:56:11 20:57:56 12° 82° (E) 20:59:40
COMPASS 1 25 May 20:57:27 21:01:36 83° 76° (ENE) 21:05:47 437.405
GONETS M04 25 May 20:57:51 21:02:31 16° 73° (ENE) 21:07:11
CINEMA 3 25 May 20:57:51 21:02:31 52° 260° (W) 21:07:01 145.822/145.860
M-CUBED/EXP-1 PRIME 25 May 20:58:32 21:01:41 20° 260° (W) 21:04:41 437.505
UWE-3 25 May 21:00:17 21:04:20 40° 70° (ENE) 21:08:18 435.000/436.395/437.385
AAUSAT CUBESAT 2 25 May 21:02:19 21:06:25 76° 76° (ENE) 21:10:35 437.432
PRISM 25 May 21:07:11 21:10:42 25° 95° (E) 21:14:11 437.425
FUNcube-1 25 May 21:11:10 21:14:59 34° 69° (ENE) 21:18:45 145.935
BEESAT 2 25 May 21:12:49 21:16:44 50° 48° (NE) 21:20:37 435.950
CUSAT 1 25 May 21:26:14 21:30:37 15° 49° (NE) 21:34:47 437.405
AIST 2 25 May 21:26:39 21:28:20 12° 27° (NNE) 21:30:00 435.215
HO-68 25 May 21:31:28 21:37:58 37° 264° (W) 21:44:32 435.675
Cosmos 2504 25 May 21:33:29 21:35:45 11° 311° (NW) 21:38:04 435.465 / 435.565
CANX-2 25 May 21:36:46 21:39:49 19° 268° (W) 21:42:53 2200.000
